Home   Weather   Seattle   Past weeks

Flag for USA Past Weather in Seattle, Washington, USA — Yesterday and Last 2 Weeks

Now
63 °F

Overcast.


Feels Like: 63 °F
Forecast: 62 / 75 °F
Wind: 5 mph from North

Location: Seattle Boeing Field

Current Time: Jul 23, 2017 at 5:54:29 am

Latest Report: Jul 23, 2017 at 4:53 am


Visibility: 10 mi

Pressure: 30.08 "Hg

Humidity: 87%

Dew Point: 59 °F

Location of SeattleLocation

Past Weather in Seattle — Graph

°F

Seattle Temperature Yesterday

Maximum temperature yesterday: 85 °F (at 4:53 pm)
Minimum temperature yesterday: 64 °F (at 1:53 am)
Average temperature yesterday: 72 °F

High & Low Weather Summary for the Past Weeks

 TemperatureHumidityPressure
High85 °F (Jul 22, 4:53 pm)93% (Jul 21, 5:53 am)30.28 "Hg (Jul 21, 5:53 am)
Low55 °F (Jul 19, 5:53 am)28% (Jul 18, 3:53 pm)29.96 "Hg (Jul 12, 6:53 pm)
Average67 °F63%30.10 "Hg
* Reported Jul 8 3:53 am — Jul 23 3:53 am, Seattle. Weather by CustomWeather, © 2017

Note: Actual official high and low records may vary slightly from our data, if they occured in-between our weather recording intervals... More about our weather records

Advertising

Seattle Weather History for the Previous 24 Hours

Scroll right to see more
 ConditionsComfort  
Time TempWeatherWind HumidityBarometerVisibility
3:53 am
Sun, Jul 23
64 °FOvercast.No wind87%30.07 "Hg10 mi
2:53 am65 °FClear.5 mph85%30.07 "Hg10 mi
1:53 am66 °FClear.No wind81%30.08 "Hg10 mi
12:53 am67 °FPassing clouds.3 mph81%30.09 "Hg10 mi
11:53 pm
Sat, Jul 22
68 °FClear.3 mph76%30.10 "Hg10 mi
10:53 pm69 °FClear.3 mph70%30.10 "Hg10 mi
9:53 pm70 °FClear.5 mph68%30.10 "Hg10 mi
8:53 pm70 °FSunny.8 mph68%30.09 "Hg10 mi
7:53 pm73 °FSunny.14 mph59%30.08 "Hg10 mi
6:53 pm76 °FSunny.10 mph54%30.07 "Hg10 mi
5:53 pm79 °FSunny.8 mph50%30.07 "Hg10 mi
4:53 pm85 °FSunny.9 mph46%30.08 "Hg10 mi
3:53 pm84 °FPassing clouds.8 mph48%30.10 "Hg10 mi
2:53 pm83 °FSunny.No wind50%30.12 "Hg10 mi
1:53 pm81 °FPassing clouds.3 mph53%30.14 "Hg10 mi
12:53 pm78 °FPassing clouds.7 mph56%30.15 "Hg10 mi
11:53 am77 °FPassing clouds.6 mph56%30.17 "Hg10 mi
10:53 am73 °FPassing clouds.8 mph55%30.17 "Hg10 mi
9:53 am71 °FCloudy.N/A59%30.18 "Hg10 mi
8:53 am69 °FCloudy.5 mph59%30.20 "Hg10 mi
7:53 am67 °FOvercast.6 mph66%30.19 "Hg10 mi
6:53 am66 °FOvercast.6 mph65%30.17 "Hg10 mi
5:53 am66 °FOvercast.7 mph65%30.16 "Hg10 mi
Weather by CustomWeather, © 2017

See weather overviewHow to use our weather pages